Eagle, CO

6:26 AM MDT on August 20, 2017 (GMT -0600)
Eagle County Regional

Weather History for KEGE - August, 2013

Change the Weather History Date:

Saturday, August 3, 2013

  Actual Average Record
Temperature  
Mean Temperature 68 °F -  
Max Temperature 82 °F 84 °F 94 °F (1960)
Min Temperature 55 °F 47 °F 36 °F (1954)
Cooling Degree Days 4    
Growing Degree Days 18 (Base 50)    
Moisture  
Dew Point 48 °F    
Average Humidity 54    
Maximum Humidity 77    
Minimum Humidity 26    
Precipitation  
Precipitation 0.00 in - - ()
Sea Level Pressure  
Sea Level Pressure 30.25 in    
Wind  
Wind Speed 6 mph (East)    
Max Wind Speed 26 mph    
Max Gust Speed 33 mph    
Visibility 10 miles    
Events      
Averages and records for this station are not official NWS values.
T = Trace of Precipitation, MM = Missing Value Source: NWS Daily Summary

Daily Weather History Graph

Daily Weather History Graph

Search for Another Location

Airport or City:

Trip Planner

Search our weather history database for the weather conditions in past years. The results will help you decide how hot, cold, wet, or windy it might be!

Date:

Astronomy

Aug. 03, 2013 Rise Set
Actual Time 6:09 AM MDT 8:18 PM MDT
Civil Twilight 5:39 AM MDT 8:47 PM MDT
Nautical Twilight 5:02 AM MDT 9:24 PM MDT
Astronomical Twilight 4:22 AM MDT 10:04 PM MDT
Moon 3:20 AM MDT (8/3) 6:02 PM MDT (8/3)
Length of Visible Light 15h 08m
Length of Day
14h 08m
Waning Crescent, 9% of the Moon is Illuminated
Aug 3
Waning Crescent
Aug 6
New
Aug 14
First Quarter
Aug 20
Full
Aug 28
Last Quarter

Hourly Weather History & Observations

Time (MDT) Temp. Dew Point Humidity Pressure Visibility Wind Dir Wind Speed Gust Speed Precip Events Conditions
12:15 AM 64.4 °F 46.4 °F 52% 30.21 in 10.0 mi East 9.2 mph - N/A   Clear
12:35 AM 62.6 °F 46.4 °F 55% 30.21 in 10.0 mi SE 5.8 mph - N/A   Clear
12:55 AM 62.6 °F 46.4 °F 55% 30.22 in 10.0 mi East 3.5 mph - N/A   Clear
1:15 AM 62.6 °F 46.4 °F 55% 30.21 in 10.0 mi East 3.5 mph - N/A   Clear
1:35 AM 60.8 °F 46.4 °F 59% 30.21 in 10.0 mi East 3.5 mph - N/A   Clear
1:55 AM 60.8 °F 46.4 °F 59% 30.21 in 10.0 mi ENE 3.5 mph - N/A   Clear
2:15 AM 60.8 °F 46.4 °F 59% 30.22 in 10.0 mi Calm Calm - N/A   Clear
2:35 AM 59.0 °F 46.4 °F 63% 30.22 in 10.0 mi SE 3.5 mph - N/A   Clear
2:55 AM 57.2 °F 46.4 °F 67% 30.22 in 10.0 mi ESE 4.6 mph - N/A   Clear
3:15 AM 57.2 °F 46.4 °F 67% 30.23 in 10.0 mi East 4.6 mph - N/A   Clear
3:35 AM 57.2 °F 46.4 °F 67% 30.23 in 10.0 mi East 5.8 mph - N/A   Clear
3:55 AM 57.2 °F 46.4 °F 67% 30.23 in 10.0 mi East 4.6 mph - N/A   Clear
4:15 AM 57.2 °F 46.4 °F 67% 30.24 in 10.0 mi Calm Calm - N/A   Clear
4:35 AM 57.2 °F 46.4 °F 67% 30.25 in 10.0 mi Calm Calm - N/A   Clear
4:55 AM 55.4 °F 46.4 °F 72% 30.25 in 10.0 mi SSE 5.8 mph - N/A   Clear
5:15 AM 55.4 °F 46.4 °F 72% 30.25 in 10.0 mi Calm Calm - N/A   Clear
5:35 AM 55.4 °F 46.4 °F 72% 30.26 in 10.0 mi Calm Calm - N/A   Clear
6:15 AM 55.4 °F 46.4 °F 72% 30.28 in 10.0 mi Calm Calm - N/A   Clear
6:35 AM 55.4 °F 46.4 °F 72% 30.29 in 10.0 mi ESE 4.6 mph - N/A   Clear
6:50 AM 55.4 °F 46.4 °F 72% 30.29 in 10.0 mi Calm Calm - N/A   Scattered Clouds
7:50 AM 57.2 °F 48.2 °F 72% 30.30 in 10.0 mi Calm Calm - N/A   Scattered Clouds
8:50 AM 60.8 °F 48.2 °F 63% 30.29 in 10.0 mi Calm Calm - N/A   Scattered Clouds
9:50 AM 69.8 °F 46.4 °F 43% 30.29 in 10.0 mi Calm Calm - N/A   Scattered Clouds
10:50 AM 73.4 °F 44.6 °F 36% 30.27 in 10.0 mi Calm Calm - N/A   Scattered Clouds
11:50 AM 80.6 °F 44.6 °F 28% 30.25 in 10.0 mi Calm Calm - N/A   Scattered Clouds
12:50 PM 82.4 °F 44.6 °F 26% 30.22 in 10.0 mi SSW 10.4 mph 18.4 mph N/A   Scattered Clouds
1:50 PM 82.4 °F 46.4 °F 28% 30.20 in 10.0 mi SSW 21.9 mph - N/A   Mostly Cloudy
2:50 PM 80.6 °F 42.8 °F 26% 30.21 in 10.0 mi WNW 10.4 mph - N/A   Mostly Cloudy
3:50 PM 82.4 °F 44.6 °F 26% 30.20 in 10.0 mi WNW 16.1 mph 23.0 mph N/A   Mostly Cloudy
4:50 PM 82.4 °F 44.6 °F 26% 30.21 in 10.0 mi WNW 3.5 mph - N/A   Scattered Clouds
5:20 PM 80.6 °F 46.4 °F 30% 30.21 in 10.0 mi East 26.5 mph 33.4 mph N/A   Scattered Clouds
5:59 PM 78.8 °F 46.4 °F 32% 30.23 in 10.0 mi East 18.4 mph 25.3 mph N/A   Scattered Clouds
6:50 PM 75.2 °F 48.2 °F 38% 30.22 in 10.0 mi ENE 13.8 mph 18.4 mph N/A   Scattered Clouds
7:15 PM 75.2 °F 46.4 °F 36% 30.22 in 10.0 mi East 15.0 mph 20.7 mph N/A   Clear
7:35 PM 73.4 °F 48.2 °F 41% 30.23 in 10.0 mi NE 8.1 mph - N/A   Clear
7:55 PM 71.6 °F 48.2 °F 43% 30.25 in 10.0 mi NNW 11.5 mph 17.3 mph N/A   Mostly Cloudy
8:15 PM 71.6 °F 48.2 °F 43% 30.27 in 10.0 mi NNW 12.7 mph 16.1 mph N/A   Mostly Cloudy
8:35 PM 69.8 °F 50.0 °F 49% 30.29 in 10.0 mi West 9.2 mph - N/A   Mostly Cloudy
8:55 PM 69.8 °F 51.8 °F 53% 30.30 in 10.0 mi WNW 6.9 mph - N/A   Overcast
9:15 PM 68.0 °F 51.8 °F 56% 30.30 in 10.0 mi WSW 5.8 mph - N/A   Overcast
9:35 PM 68.0 °F 51.8 °F 56% 30.29 in 10.0 mi West 8.1 mph - N/A   Overcast
9:55 PM 66.2 °F 53.6 °F 64% 30.30 in 10.0 mi NW 3.5 mph - N/A   Mostly Cloudy
10:15 PM 64.4 °F 53.6 °F 68% 30.30 in 10.0 mi WNW 8.1 mph - N/A   Mostly Cloudy
10:35 PM 64.4 °F 53.6 °F 68% 30.30 in 10.0 mi West 9.2 mph - N/A   Mostly Cloudy
10:55 PM 64.4 °F 53.6 °F 68% 30.30 in 10.0 mi West 9.2 mph - N/A   Scattered Clouds
11:15 PM 64.4 °F 51.8 °F 64% 30.30 in 10.0 mi West 8.1 mph - N/A   Partly Cloudy
11:55 PM 60.8 °F 53.6 °F 77% 30.31 in 10.0 mi WSW 4.6 mph - N/A   Clear